Index of /upload/GalleryImage/2016_12/


../
182498.jpg                                         08-Dec-2018 08:33               88651
2016-12-05_1205.png                                08-Dec-2018 08:33              678346
2016-12-15_1106.png                                08-Dec-2018 08:33              463099
2016-12-15_1512.png                                08-Dec-2018 08:33              414420
2016-12-15_ZM15.png                                08-Dec-2018 08:33              454997
2016-12-20_1005.png                                08-Dec-2018 08:33              587195
2016-12-21_1005.png                                08-Dec-2018 08:33              599438
2016-12-21_1206.png                                08-Dec-2018 08:33              670261
2016-12-21_1237.png                                08-Dec-2018 08:33              639124
2016-12-21_1315.png                                08-Dec-2018 08:33              635623
2016-12-22_1342.png                                08-Dec-2018 08:33              607460
2016-12-22_1438.png                                08-Dec-2018 08:33              643705
2016-12-22_1530.png                                08-Dec-2018 08:33              633242
21st-century-fox_389687926.jpg                     08-Dec-2018 08:33             8068992
9_Nordson hygiene.jpg                              08-Dec-2018 08:33               70763
Aceh-Indonesia_447474613.jpg                       08-Dec-2018 08:33             4980361
Antibody.jpg                                       08-Dec-2018 08:33              373198
AstraZeneca_515472277.jpg                          08-Dec-2018 08:33            12148658
AustralianHundredDollar757x468.jpg                 08-Dec-2018 08:33              139053
AvancoTonyAndColin.jpg                             08-Dec-2018 08:33               66060
BP_north_american_gas_opt.jpg                      08-Dec-2018 08:33               89869
BaseballPlayer.jpg                                 08-Dec-2018 08:33              103507
Berlin-Christmasmarket_533130124.jpg               08-Dec-2018 08:33            11940488
Botox_376962886.jpg                                08-Dec-2018 08:33             7340502
Bug Lake Drill and Surveying (for Sept 7 releas..> 08-Dec-2018 08:33              200498
Chicago-fire-box-1404059_1920.jpg                  08-Dec-2018 08:33              499111
Chicago_5397364.jpg                                08-Dec-2018 08:33             3218392
ChristmasJumper.jpg                                08-Dec-2018 08:33               82670
Concrete-Rings.jpg                                 08-Dec-2018 08:33              168014
DigitalFingerprint.jpg                             08-Dec-2018 08:33              133958
Dow-Direction_496888975.jpg                        08-Dec-2018 08:33             4486010
Dow-Direction_496888975.jpg_5862721096fa6.jpg      08-Dec-2018 08:33             4486010
Dow-Terror_4803865.jpg                             08-Dec-2018 08:33             5541408
Empire-State-600001_1920.jpg                       08-Dec-2018 08:33              639760
EpiPen.jpg                                         08-Dec-2018 08:33               81936
Excelsior Mining solutiontank.jpg                  08-Dec-2018 08:33              160888
FatherTime.jpg                                     08-Dec-2018 08:33               76206
Finish-Line_328695875.jpg                          08-Dec-2018 08:33             7457391
Formula-One.jpg                                    08-Dec-2018 08:33              139975
Gap_368511206.jpg                                  08-Dec-2018 08:33             8074077
Geiger Counter-Uranium_489646759.jpg               08-Dec-2018 08:33            10148529
GrahamCarmanTinka.jpg                              08-Dec-2018 08:33               53557
GreenDragon.PNG                                    08-Dec-2018 08:33             1146542
Heather-Bresch-Mylan_473785972.jpg                 08-Dec-2018 08:33             2329845
IMG_4207.jpg                                       08-Dec-2018 08:33            25895246
Investment management.jpg                          08-Dec-2018 08:33              430575
Johnson_415689880.jpg                              08-Dec-2018 08:33             5400629
Kameleon.png                                       08-Dec-2018 08:33              396882
KateSpade_375476122.jpg                            08-Dec-2018 08:33             2777798
KineticEnergy.jpg                                  08-Dec-2018 08:33              120930
Lansing-michigan-1191024_1920.jpg                  08-Dec-2018 08:33              724137
Lansing-michigan-1191024_1920.jpg_585d970f604bd..> 08-Dec-2018 08:33              724137
LegoMen.jpg                                        08-Dec-2018 08:33              166729
Lockheed-f-16-66232_1920.jpg                       08-Dec-2018 08:33              320353
London.jpg                                         08-Dec-2018 08:33              912618
London.jpg_58637f48b0796.jpg                       08-Dec-2018 08:33              912618
LucapaStephenWeatherall.jpg                        08-Dec-2018 08:33               55807
MagnersCider.jpg                                   08-Dec-2018 08:33              116197
McDonalds-Lux_504003784.jpg                        08-Dec-2018 08:33            25282489
Millennium Bridge  3 (Resized).JPG                 08-Dec-2018 08:33               95083
NYPost-Amazon-Go.JPG                               08-Dec-2018 08:33               79910
NYPost-Amazon-Go1.jpg                              08-Dec-2018 08:33              111854
NYPost-Amazon-Go2.jpg                              08-Dec-2018 08:33              122552
NYPost-Amazon-Go3.jpg                              08-Dec-2018 08:33              131155
NYPost-Amazon-Go4.jpg                              08-Dec-2018 08:33              131541
NoramZeus.jpg                                      08-Dec-2018 08:33              228030
Nordstrom_436290934.jpg                            08-Dec-2018 08:33             8435151
Oilfield.jpg                                       08-Dec-2018 08:33              461617
Porto-portugal-1350648_1920.jpg                    08-Dec-2018 08:33              459367
PoweredAccess.jpg                                  08-Dec-2018 08:33              150822
Procter-and-Gamble-Gillette-88137_1920.jpg         08-Dec-2018 08:33              506250
RecordPlayer.jpg                                   08-Dec-2018 08:33               43741
RefineryTanks.jpg                                  08-Dec-2018 08:33               77902
RubyTuesday_281214176 (1).jpg                      08-Dec-2018 08:33             8914071
RubyTuesday_412405186.jpg                          08-Dec-2018 08:33             8842444
Santa-Red-Hat-box-15737_1920.jpg                   08-Dec-2018 08:33              378032
Sears_450252595.jpg                                08-Dec-2018 08:33            12407646
Silicon-Valley-Technology-Center-San-Jose_25755..> 08-Dec-2018 08:33            19305924
Stocks-decline_156972491.jpg                       08-Dec-2018 08:33             5227158
Sumner-Redstone_118587838.jpg                      08-Dec-2018 08:33             2209534
TabletAndLaptop.jpg                                08-Dec-2018 08:33               89517
Tailored-Brands.JPG                                08-Dec-2018 08:33               11095
Tailored-Brands1.jpg                               08-Dec-2018 08:33               12841
TimCarstensBaseRes.jpg                             08-Dec-2018 08:33               62989
Trucker.jpg                                        08-Dec-2018 08:33              626094
Univ.Michigan-hot-air-balloon-1866360_1280.jpg     08-Dec-2018 08:33              133821
VariousDollars_308974151.jpg                       08-Dec-2018 08:33             5001929
WelcomeToLasVegas.jpg                              08-Dec-2018 08:33               79309
Wheelchair.jpg                                     08-Dec-2018 08:33              158834
Wiley.png                                          08-Dec-2018 08:33              243262
aeroplane_clouds.jpg                               08-Dec-2018 08:33               55330
aircon.jpg                                         08-Dec-2018 08:33              454854
aircraft-1746524_1920.jpg                          08-Dec-2018 08:33              536823
bearings.jpg                                       08-Dec-2018 08:33              172367
capacitor.jpg                                      08-Dec-2018 08:33            12116128
champagne-cork.jpg                                 08-Dec-2018 08:33              343789
chicago-329249_1920.jpg                            08-Dec-2018 08:33              802722
circuit_137505566.jpg                              08-Dec-2018 08:33             9182441
clinical trial.jpg                                 08-Dec-2018 08:33              506551
cq5dam.web.1200.AstraZeneca-Headquarters.jpg       08-Dec-2018 08:33               92135
delorean.jpg                                       08-Dec-2018 08:33               36831
diatomite.jpg                                      08-Dec-2018 08:33              100854
emanuel.png                                        08-Dec-2018 08:33              610251
fake-news-1909821_1920.jpg                         08-Dec-2018 08:33              451019
green_flash.png                                    08-Dec-2018 08:33              174936
insurance_concept_family,_sized.png                08-Dec-2018 08:33              462633
intensive care.jpg                                 08-Dec-2018 08:33              531893
koovs shutterstock.jpg                             08-Dec-2018 08:33               73429
manhole-covers.jpg                                 08-Dec-2018 08:33              110096
money-95793_1280.jpg                               08-Dec-2018 08:33              452116
nasty gal.jpg                                      08-Dec-2018 08:33              114724
nosuch_.png                                        08-Dec-2018 08:33              444592
offshore_rig_1,_sized.png                          08-Dec-2018 08:33              664769
oil.png                                            08-Dec-2018 08:33              990086
pancake.jpg                                        08-Dec-2018 08:33             1008460
pellets.jpg                                        08-Dec-2018 08:33              598739
pots-cooking.jpg                                   08-Dec-2018 08:33              222680
punch-in-bar_126382628.jpg                         08-Dec-2018 08:33             8665749
shutterstock_142135510.jpg                         08-Dec-2018 08:33               49345
shutterstock_162303197 (1).jpg                     08-Dec-2018 08:33             4864239
shutterstock_179823797.jpg                         08-Dec-2018 08:33               41074
shutterstock_192689060.jpg                         08-Dec-2018 08:33              445813
shutterstock_202732678.jpg                         08-Dec-2018 08:33              247935
shutterstock_214810693.jpg                         08-Dec-2018 08:33              137119
shutterstock_252592033.jpg                         08-Dec-2018 08:33               82969
shutterstock_261906578.jpg                         08-Dec-2018 08:33              850253
shutterstock_274972916.jpg                         08-Dec-2018 08:33               62389
shutterstock_283866563.jpg                         08-Dec-2018 08:33              396734
shutterstock_303649880.jpg                         08-Dec-2018 08:33              926905
shutterstock_343189955.jpg                         08-Dec-2018 08:33              108623
shutterstock_399123667 (1).jpg                     08-Dec-2018 08:33             7548008
shutterstock_399123667 (2).jpg                     08-Dec-2018 08:33             7543548
shutterstock_413035387-001.jpg                     08-Dec-2018 08:33               71583
shutterstock_418121527.jpg                         08-Dec-2018 08:33               99395
shutterstock_420153904.jpg                         08-Dec-2018 08:33              456515
shutterstock_424993975.jpg                         08-Dec-2018 08:33              603751
shutterstock_443629969.jpg                         08-Dec-2018 08:33              100896
shutterstock_443629969.jpg_5859568532571.jpg       08-Dec-2018 08:33              100896
shutterstock_455899876.jpg                         08-Dec-2018 08:33              548057
shutterstock_459896185.jpg                         08-Dec-2018 08:33               58531
shutterstock_460060426.jpg                         08-Dec-2018 08:33               57558
shutterstock_475605010.jpg                         08-Dec-2018 08:33              568013
shutterstock_481621126 (1).jpg                     08-Dec-2018 08:33            10937169
shutterstock_498135868 (1).jpg                     08-Dec-2018 08:33             5160330
shutterstock_498841390 (1).jpg                     08-Dec-2018 08:33             4929022
shutterstock_510001888.jpg                         08-Dec-2018 08:33               53954
shutterstock_522207349.jpg                         08-Dec-2018 08:33              155190
shutterstock_531800959.jpg                         08-Dec-2018 08:33               55946
shutterstock_531970381.jpg                         08-Dec-2018 08:33             1014214
shutterstock_532512499.jpg                         08-Dec-2018 08:33             1214553
shutterstock_532808209.jpg                         08-Dec-2018 08:33              351840
shutterstock_533123542.jpg                         08-Dec-2018 08:33              724914
shutterstock_533585431.jpg                         08-Dec-2018 08:33               53105
shutterstock_534283660.jpg                         08-Dec-2018 08:33               95943
shutterstock_544737412.jpg                         08-Dec-2018 08:33              780224
skyline-calgary-559370_1920.jpg                    08-Dec-2018 08:33              347425
to let.jpg                                         08-Dec-2018 08:33              648444
uranium-mining_134109206.jpg                       08-Dec-2018 08:33             5017170